JA3VQW-13 Hirakata JP current weather conditions

sailwx.info

Wind from 252

Air temperature 26.7° C
Dewpoint 8.1° C

Last reported at 2015-May-28 09:44 UTC.
Time now 2015-May-28 10:05 UTC

Location: N 34°48' E 135°40'.
View on Google Maps.

See reports from other nearby stations

  
Tides and Currents Weather Stations Pressure Air Temp Water Temp Dewpoint Dewpoint Depression Visibility Wind Speed Wind Dir Waves Ship Positions
date/time (UTC)wind fromknots sea level pressurealtimeterstation pressurevisibilityair tempwater tempwave heightnotes
2015-May-28 09:44 252 26.7
2015-May-28 09:33 295 26.7
2015-May-28 09:03 250 27.2
2015-May-28 08:33 090 28.3
2015-May-28 08:03 270 28.3
2015-May-28 07:33 315 29.4
2015-May-28 07:03 316 29.4
2015-May-28 06:33 010 30.6
2015-May-28 06:03 307 32.2
2015-May-28 05:33 089 32.8
2015-May-28 05:03 292 31.7
2015-May-28 04:33 296 32.2
2015-May-28 04:03 258 32.8
2015-May-28 03:33 294 32.2
2015-May-28 03:03 267 31.1
2015-May-28 02:33 003 29.4
2015-May-28 02:03 303 28.3
2015-May-28 01:33 123 27.8
2015-May-28 01:03 269 26.7
2015-May-28 00:33 315 26.7
2015-May-28 00:17 349 26.1
2015-May-27 23:47 315 25.0
2015-May-27 23:17 315 25.0
2015-May-27 22:47 281 24.4
2015-May-27 22:17 261 22.8
2015-May-27 21:47 270 22.2
2015-May-27 21:17 225 21.7
2015-May-27 21:11 225 21.7
2015-May-27 20:41 225 20.6
2015-May-27 20:11 225 20.6
2015-May-27 19:41 225 21.1
2015-May-27 19:11 225 21.1
2015-May-27 18:41 225 21.1
2015-May-27 18:11 135 21.7
2015-May-27 17:41 135 21.7
2015-May-27 17:11 135 22.2
2015-May-27 16:41 235 22.8
2015-May-27 16:11 158 22.8
2015-May-27 15:41 158 23.3
2015-May-27 15:11 158 23.9
2015-May-27 14:41 158 23.9
2015-May-27 14:11 180 24.4
2015-May-27 13:55 180 25.0
2015-May-27 13:24 258 25.0
2015-May-27 12:54 180 25.6
2015-May-27 12:24 303 26.7
2015-May-27 11:54 135 27.2
2015-May-27 11:24 225 27.8
2015-May-27 10:54 180 28.3
2015-May-27 10:24 223 28.9
2015-May-27 09:54 235 30.0
2015-May-27 09:24 095 31.1
2015-May-27 08:54 205 32.2
2015-May-27 08:24 275 33.3
2015-May-27 07:54 271 32.8
2015-May-27 07:24 300 1 gusting 4 33.3
2015-May-27 06:54 253 1 gusting 5 33.9
2015-May-27 06:24 302 4 gusting 5 33.3
2015-May-27 05:54 287 1 gusting 4 34.4
2015-May-27 05:24 299 33.9
2015-May-27 04:54 236 0 gusting 1 33.3
2015-May-27 04:35 222 33.3
2015-May-27 04:05 182 33.3
2015-May-27 03:35 204 32.2
2015-May-27 03:05 134 1 gusting 4 31.1
2015-May-27 02:35 281 1 gusting 5 30.0
2015-May-27 02:05 144 28.9
2015-May-27 01:35 289 1 gusting 5 27.8
2015-May-27 01:05 292 26.7
2015-May-27 00:35 270 25.6
2015-May-27 00:02 270 25.0
2015-May-26 23:32 292 23.9
2015-May-26 23:02 270 22.8
2015-May-26 22:32 270 21.7
2015-May-26 22:02 292 21.7
2015-May-26 21:32 292 20.0
2015-May-26 21:02 292 19.4
2015-May-26 20:55 292 18.9
2015-May-26 20:28 135 18.9
2015-May-26 19:58 270 18.9
2015-May-26 19:28 270 19.4
2015-May-26 18:58 270 18.9
2015-May-26 18:28 270 19.4
2015-May-26 17:58 270 19.4
2015-May-26 17:28 180 20.0
2015-May-26 16:58 180 20.6
2015-May-26 16:28 135 21.1
2015-May-26 15:58 135 21.7
2015-May-26 15:28 135 21.7
2015-May-26 14:58 135 22.2
2015-May-26 14:28 315 22.8
2015-May-26 13:58 315 23.3
2015-May-26 13:28 315 23.9
2015-May-26 12:58 270 24.4
2015-May-26 12:28 270 25.0
2015-May-26 11:58 270 25.6
2015-May-26 11:28 270 26.1
2015-May-26 10:58 270 26.7
2015-May-26 10:28 292 27.8